星链-32140 (STARLINK-32140)

导读

STARLINK-32140是美国SpaceX公司星链(Starlink)星座组网的卫星之一,于北京时间2024年10月15日,由猎鹰9号火箭从美国加利福尼亚州范登堡太空军基地发射升空,进入低地球轨道,该星属于Starlink Group 9-7任务组,具备直接到基站功能,用于扩充星链星座规模,为全球提供高速卫星互联网服务。

基本信息
目录编号:
61511
目录名称:
STARLINK-32140
国际标识:
2024-183C
轨道中心:
EARTH
卫星名称:
星链-32140
卫星全名:
星链-32140 (STARLINK-32140)
卫星状态:
在轨 (已飞行689 天)
发射日期:
2024-10-15 UTC
国别 :
美国 (US)
星等 :
--
轨道信息
数据来源 国际轨道数据 AOE轨道数据
星历时间 2026-09-04T03:14:45+0800
9小时前
查看轨道信息
2026-09-03T16:00:00+0800
20小时前
查看轨道信息
半长轴 6848.899km 6848.903km
偏心率 0.0001311 0.0001109
轨道倾角 53.162° 53.159°
近地点辐角 93.827° 79.706°
升交点赤经 33.618° 35.801°
平近点角 266.288° 215.181°
近地点 469.864km 470.006km
远地点 471.66km 471.526km
周期 94.014分钟 94.014分钟
每日圈数 15.316928 15.316914
详细信息
固有亮度:
5
最大亮度:
2.5
卫星平台:
Starlink V1.0
覆盖范围:
全球
运营商:
太空探索技术公司
运营商所在国:
美国
制造商(研发单位):
太空探索技术公司
制造商所在国:
美国
使用方式:
暂无
卫星简介
Starlink 计划是 SpaceX 推出的全球卫星互联网项目,通过发射低轨道卫星,为全球尤其是偏远地区提供高速、低延迟的互联网服务。自 2019 年起,Starlink 已部署数千颗卫星,旨在缩小全球数字鸿沟,推动互联网普及。该项目还为军事、航空等行业提供通信支持,带来广泛经济效益。
2D轨道图
3D轨道图
轨道高度分析图
轨道倾角分析图
轨道综合分析图
查看轨道综合分析图
交会数据列表
事件ID 空间交会对象 最接近时刻(TCA) 交会距离 交会风险概率(CRP) 交会风险指数(CRI) 操作
CDM_260904-212405-245806-151121
2026-09-04T
21:24:47+0000
0.988 km
远距离
1.282833E-5 中风险 0.57
CDM_260901-231906-151106-488421
OBJECT J (64884)
2026-09-01T
23:19:31+0000
2.545 km
极远距离
1.695829E-6 低风险 0.4
CDM_260903-212806-151106-830621
2026-09-03T
21:28:19+0000
2.751 km
极远距离
9.169598E-7 极低风险 0.34